Pagina principale
METAR-TAF:

METAR-TAF

Aeroporti :

Wings Field

Filadelfia / Blue Bell, Pennsylvania, Stati Uniti

latitudine: 40-08-15N, longitudine: 075-15-54W, altezza: 92 m

Osservazione

Il bollettino è stato emesso 27 minuti fa, alle 15:15 UTC
Vento 6 kt da nord-ovest
Temperature 6°C
Umidità 81%
Pressione 1013 hPa
Visibilità: 11.3 km
Cielo coperto ad un'altezza di 1600 ft

METAR: KLOM 201515Z AUTO 32006KT 7SM OVC016 06/03 A2992 RMK AO1

Ora: 10:42 (15:42 UTC)


TAF: mancante

Osservazioni e previsioni meteorologiche di più di 4000 aeroporti (messaggi METAR e TAF).

Le stazioni disponibili sono rappresentate dai dischi gialli e rossi sulla carta.

Puntare il mouse per vedere il nome della stazione.

Clicca sopra per visualizzare le osservazioni e previsioni meteorologiche.

Per cambiare la mappa : fare clic sui pulsanti verdi con una croce nera per ingrandire, il pulsante verde con un trattino per diminuire, o sulla freccia verde per le mappe adiacenti.


METAR-TAF: